Miscellaneous Local Product
Issued by NWS Hastings, NE

Home | Current Version | Previous Version | Text Only | Print | Product List | Glossary On
Versions: 1 2 3 4 5 6 7 8 9 10 11 12 13 14 15 16 17 18 19 20 21 22 23 24 25 26 27 28 29 30 31 32 33 34 35 36 37 38 39 40 41 42 43 44 45 46 47 48 49 50
000
AXUS43 KGID 311402
MISGRI

GID CWA HOURLY WEATHER ROUNDUP
NATIONAL WEATHER SERVICE HASTINGS NE
900 AM CDT WED AUG 31 2016

NOTE: "FAIR" INDICATES FEW OR NO CLOUDS BELOW 12,000 FEET WITH NO
SIGNIFICANT WEATHER AND/OR OBSTRUCTIONS TO VISIBILITY.

...SOUTH CENTRAL NEBRASKA...

CITY           SKY/WX    TMP DP  RH WIND       PRES   REMARKS
GRAND ISLAND   FOG       67  66  97 NE7       30.22R VSB 3/4
HASTINGS       CLOUDY    68  66  93 NE5       30.22R FOG
KEARNEY        CLOUDY    66  64  94 E7        30.22R
ORD            FOG       64  62  93 NE5       30.22R VSB<1/4
YORK           CLOUDY    68  68 100 E8        30.20S FOG
AURORA         CLOUDY    67  67 100 NE6       30.21R FOG
LEXINGTON      FOG       66  65  95 NE5       30.24R VSB 1/4
HOLDREGE       CLOUDY    67  66  96 E5        30.22R FOG
HEBRON         CLOUDY    70  69  95 NE6       30.18S FOG

...NEBRASKA PANHANDLE...

CITY           SKY/WX    TMP DP  RH WIND       PRES   REMARKS
CHADRON        SUNNY     63  59  87 S12       30.23R
ALLIANCE       CLOUDY    62  61  96 CALM      30.26F
SCOTTSBLUFF    CLOUDY    62  60  93 CALM      30.26F
SIDNEY         CLOUDY    63  62  97 S3        30.28S FOG

...WESTERN AND NORTH CENTRAL NEBRASKA...

CITY           SKY/WX    TMP DP  RH WIND       PRES   REMARKS
VALENTINE      SUNNY     62  60  93 CALM      30.23S
AINSWORTH      SUNNY     62  62 100 CALM      30.24S FOG
ONEILL         FOG       66  64  95 CALM      30.24S VSB 1/2
BROKEN BOW     FOG       64  64 100 E5        30.24R VSB<1/4
IMPERIAL       LGT RAIN  65  64  97 E5        30.24S
NORTH PLATTE   FOG       65  64  97 CALM      30.24S VSB<1/4
MCCOOK         CLOUDY    66  65  96 E7        30.23R FOG

...EASTERN NEBRASKA...

CITY           SKY/WX    TMP DP  RH WIND       PRES   REMARKS
NORFOLK        SUNNY     67  64  90 E5        30.22S
SO SIOUX CITY  SUNNY     70  64  81 CALM      30.21S
TEKAMAH        MOSUNNY   67  63  87 N7        30.20S
COLUMBUS       MOSUNNY   70  61  73 E7        30.21S
ALBION         CLOUDY    67  66  94 E7        30.22S FOG
OMAHA EPPLEY   PTSUNNY   70  62  76 N8        30.19R
OFFUTT AFB     PTSUNNY   70  64  80 NE7       30.18R
MILLARD        MOSUNNY  N/A N/A N/A CALM      30.19R
LINCOLN        CLOUDY    73  68  84 NE7       30.19S
NEBRASKA CITY  CLOUDY    69  68  97 NE5       30.17S
BEATRICE       CLOUDY    71  69  94 E7        30.17S
FALLS CITY     CLOUDY    72  69  90 VRB5      30.14S

...NORTHERN KANSAS...

CITY           SKY/WX    TMP DP  RH WIND       PRES   REMARKS
GOODLAND       FOG       64  63  96 S6        30.23R VSB 1/2
HILL CITY      FOG       66  66 100 NW3       30.21R VSB 1/4
NORTON         CLOUDY    68  63  83 NE6       30.21S
SMITH CENTER   CLOUDY    66  66 100 CALM      30.20R
BELOIT         CLOUDY    64  64 100 NE5       30.16S
HAYS           CLOUDY    68  61  77 NE3       30.19R
RUSSELL        CLOUDY    70  68  93 E5        30.17R
CONCORDIA      CLOUDY    70  68  93 E5        30.17R
SALINA         HVY RAIN  72  70  93 NE12      30.14S FOG
TOPEKA         CLOUDY    72  70  93 N3        30.13R



USA.gov is the U.S. government's official web portal to all federal, state and local government web resources and services.